Zurück zum Katalog

COSMOS 839 DEB

AktivUNKNOWN
NORAD 10614·DEBRIS·🇷🇺 Russia

Gestartet Jul 8, 1976 von Plesetsk Cosmodrome

Loading…

Nächste Überflüge (nächste 24 Stunden)

TLE

AktuellSource: Space-Track

Epoche: Sep 14, 2026, 04:11 UTC

1 10614U 76067AN  26257.17463087  .00000198  00000-0  72285-3 0  9991
2 10614  65.7318 149.3471 0730405 140.8635  18.1083 12.42099193271077

Verfolge COSMOS 839 DEB in Echtzeit mit AllMySat

Download on the App Store